• In Russia
  • List of Countries
  • For 7 days
  • Water Temperature
  • Satellite Maps
  • Weather Map
  • Weather Widgets
  • user-avatar
    Login

    Hourly Weather Graz

    Today, 24 January, Tuesday

    Time Temperature Precipitation Wind Pressure Humidity
    00:00 -10°C° 0 mm 1 mps 726 mmHg 97%
    01:00 -10°C° 0 mm 1 mps 726 mmHg 97%
    02:00 -10°C° 0 mm 1 mps 726 mmHg 97%
    03:00 -10°C° 0 mm 1 mps 726 mmHg 97%
    04:00 -10°C° 0 mm 1 mps 726 mmHg 96%
    05:00 -10°C° 0 mm 1 mps 726 mmHg 96%
    06:00 -11°C° 0 mm 1 mps 726 mmHg 97%
    07:00 -11°C° 0 mm 1 mps 727 mmHg 97%
    08:00 -9°C° 0 mm 1 mps 727 mmHg 94%
    09:00 -7°C° 0 mm 1 mps 728 mmHg 91%
    10:00 -3°C° 0 mm 1 mps 728 mmHg 89%
    11:00 -2°C° 0 mm 1 mps 728 mmHg 87%
    12:00 -1°C° 0 mm 1 mps 728 mmHg 86%
    13:00 0°C° 0 mm 1 mps 728 mmHg 84%
    14:00 -1°C° 0 mm 1 mps 728 mmHg 88%
    15:00 -2°C° 0 mm 1 mps 728 mmHg 92%
    16:00 -3°C° 0 mm 1 mps 728 mmHg 95%
    17:00 -4°C° 0 mm 1 mps 728 mmHg 96%
    18:00 -6°C° 0 mm 1 mps 728 mmHg 97%
    19:00 -7°C° 0 mm 1 mps 729 mmHg 97%
    20:00 -8°C° 0 mm 1 mps 729 mmHg 97%
    21:00 -8°C° 0 mm 1 mps 729 mmHg 97%
    22:00 -8°C° 0 mm 1 mps 729 mmHg 96%
    23:00 -8°C° 0 mm 1 mps 729 mmHg 96%

    Tomorrow, 25 January, Wednesday

    Time Temperature Precipitation Wind Pressure Humidity
    00:00 -8°C° 0 mm 1 mps 729 mmHg 95%
    01:00 -8°C° 0 mm 1 mps 729 mmHg 94%
    02:00 -9°C° 0 mm 1 mps 729 mmHg 94%
    03:00 -9°C° 0 mm 1 mps 729 mmHg 94%
    04:00 -9°C° 0 mm 1 mps 729 mmHg 94%
    05:00 -10°C° 0 mm 1 mps 729 mmHg 94%
    06:00 -10°C° 0 mm 1 mps 729 mmHg 94%
    07:00 -10°C° 0 mm 1 mps 729 mmHg 93%
    08:00 -8°C° 0 mm 1 mps 730 mmHg 90%
    09:00 -6°C° 0 mm 1 mps 730 mmHg 87%
    10:00 -4°C° 0 mm 0 mps 731 mmHg 84%
    11:00 -2°C° 0 mm 1 mps 731 mmHg 83%
    12:00 -1°C° 0 mm 1 mps 730 mmHg 82%
    13:00 0°C° 0 mm 1 mps 730 mmHg 80%
    14:00 -1°C° 0 mm 1 mps 730 mmHg 85%
    15:00 -2°C° 0 mm 1 mps 730 mmHg 90%
    16:00 -3°C° 0 mm 1 mps 730 mmHg 95%
    17:00 -6°C° 0 mm 1 mps 730 mmHg 96%
    18:00 -7°C° 0 mm 1 mps 730 mmHg 96%
    19:00 -9°C° 0 mm 1 mps 730 mmHg 97%
    20:00 -9°C° 0 mm 1 mps 730 mmHg 97%
    21:00 -9°C° 0 mm 0 mps 731 mmHg 97%
    22:00 -10°C° 0 mm 0 mps 731 mmHg 97%
    23:00 -10°C° 0 mm 0 mps 731 mmHg 97%

    Day after tomorrow, 26 January, Thursday

    Time Temperature Precipitation Wind Pressure Humidity
    00:00 -10°C° 0 mm 0 mps 731 mmHg 97%
    01:00 -10°C° 0 mm 0 mps 731 mmHg 97%
    02:00 -10°C° 0 mm 0 mps 731 mmHg 97%
    03:00 -10°C° 0 mm 1 mps 731 mmHg 97%
    04:00 -10°C° 0 mm 1 mps 730 mmHg 97%
    05:00 -10°C° 0 mm 1 mps 731 mmHg 97%
    06:00 -10°C° 0 mm 1 mps 731 mmHg 97%
    07:00 -10°C° 0 mm 1 mps 731 mmHg 97%
    08:00 -8°C° 0 mm 1 mps 731 mmHg 95%
    09:00 -4°C° 0 mm 1 mps 732 mmHg 92%
    10:00 -2°C° 0 mm 1 mps 732 mmHg 90%
    11:00 -1°C° 0 mm 1 mps 732 mmHg 88%
    12:00 0°C° 0 mm 1 mps 732 mmHg 87%
    13:00 0°C° 0 mm 1 mps 731 mmHg 85%
    14:00 0°C° 0 mm 1 mps 731 mmHg 89%
    15:00 -1°C° 0 mm 1 mps 731 mmHg 92%
    16:00 -2°C° 0 mm 1 mps 731 mmHg 95%
    17:00 -3°C° 0 mm 1 mps 731 mmHg 96%
    18:00 -4°C° 0 mm 1 mps 731 mmHg 97%
    19:00 -6°C° 0 mm 1 mps 732 mmHg 98%
    20:00 -6°C° 0 mm 1 mps 732 mmHg 98%
    21:00 -6°C° 0 mm 1 mps 732 mmHg 98%
    22:00 -6°C° 0 mm 1 mps 732 mmHg 98%
    23:00 -6°C° 0 mm 1 mps 732 mmHg 98%

    27 January, Friday

    Time Temperature Precipitation Wind Pressure Humidity
    00:00 -6°C° 0 mm 1 mps 732 mmHg 98%
    01:00 -6°C° 0 mm 1 mps 732 mmHg 98%
    02:00 -7°C° 0 mm 1 mps 732 mmHg 98%
    03:00 -7°C° 0 mm 1 mps 732 mmHg 98%
    04:00 -7°C° 0 mm 1 mps 732 mmHg 98%
    05:00 -7°C° 0 mm 1 mps 732 mmHg 98%
    06:00 -7°C° 0 mm 1 mps 732 mmHg 98%
    07:00 -8°C° 0 mm 1 mps 732 mmHg 98%
    08:00 -7°C° 0 mm 1 mps 732 mmHg 96%
    09:00 -4°C° 0 mm 1 mps 732 mmHg 94%
    10:00 -3°C° 0 mm 1 mps 732 mmHg 92%
    11:00 -3°C° 0 mm 1 mps 732 mmHg 90%
    12:00 -2°C° 0 mm 1 mps 731 mmHg 88%
    13:00 -3°C° 0 mm 2 mps 731 mmHg 87%
    14:00 -3°C° 0 mm 2 mps 731 mmHg 89%
    15:00 -4°C° 0 mm 2 mps 731 mmHg 92%
    16:00 -2°C° 0 mm 1 mps 730 mmHg 94%
    17:00 -3°C° 0 mm 1 mps 730 mmHg 95%
    18:00 -4°C° 0 mm 1 mps 730 mmHg 96%
    19:00 -6°C° 0 mm 1 mps 731 mmHg 98%
    20:00 -7°C° 0 mm 1 mps 731 mmHg 98%
    21:00 -7°C° 0 mm 1 mps 730 mmHg 98%
    22:00 -8°C° 0 mm 1 mps 730 mmHg 97%
    23:00 -8°C° 0 mm 1 mps 730 mmHg 97%

    28 January, Saturday

    Time Temperature Precipitation Wind Pressure Humidity
    00:00 -8°C° 0 mm 1 mps 730 mmHg 96%
    01:00 -8°C° 0 mm 1 mps 730 mmHg 96%
    02:00 -8°C° 0 mm 1 mps 730 mmHg 95%
    03:00 -8°C° 0 mm 1 mps 729 mmHg 94%
    04:00 -9°C° 0 mm 1 mps 729 mmHg 94%
    05:00 -9°C° 0 mm 1 mps 729 mmHg 93%
    06:00 -9°C° 0 mm 1 mps 729 mmHg 92%
    07:00 -9°C° 0 mm 1 mps 729 mmHg 91%
    08:00 -7°C° 0 mm 1 mps 730 mmHg 87%
    09:00 -3°C° 0 mm 1 mps 730 mmHg 84%
    10:00 -1°C° 0 mm 1 mps 731 mmHg 80%
    11:00 0°C° 0 mm 1 mps 730 mmHg 80%
    12:00 +1°C° 0 mm 1 mps 730 mmHg 80%
    13:00 +2°C° 0 mm 1 mps 730 mmHg 80%
    14:00 +1°C° 0 mm 1 mps 730 mmHg 84%
    15:00 0°C° 0 mm 1 mps 729 mmHg 88%
    16:00 -2°C° 0 mm 1 mps 729 mmHg 93%
    17:00 -5°C° 0 mm 0 mps 729 mmHg 94%
    18:00 -6°C° 0 mm 0 mps 729 mmHg 95%
    19:00 -8°C° 0 mm 0 mps 729 mmHg 96%
    20:00 -8°C° 0 mm 0 mps 729 mmHg 95%
    21:00 -8°C° 0 mm 0 mps 729 mmHg 95%
    22:00 -8°C° 0 mm 1 mps 730 mmHg 94%
    23:00 -7°C° 0 mm 1 mps 730 mmHg 93%

    29 January, Sunday

    Time Temperature Precipitation Wind Pressure Humidity
    00:00 -7°C° 0 mm 1 mps 730 mmHg 91%
    01:00 -7°C° 0 mm 1 mps 730 mmHg 90%
    02:00 -7°C° 0 mm 1 mps 730 mmHg 89%
    03:00 -7°C° 0 mm 1 mps 730 mmHg 88%
    04:00 -7°C° 0 mm 1 mps 730 mmHg 87%
    05:00 -7°C° 0 mm 1 mps 731 mmHg 88%
    06:00 -7°C° 0 mm 1 mps 731 mmHg 89%
    07:00 -7°C° 0 mm 1 mps 731 mmHg 89%
    08:00 -3°C° 0 mm 1 mps 732 mmHg 86%
    09:00 -1°C° 0 mm 1 mps 732 mmHg 83%
    10:00 +1°C° 0 mm 1 mps 733 mmHg 81%
    11:00 +2°C° 0 mm 1 mps 733 mmHg 81%
    12:00 +3°C° 0 mm 1 mps 732 mmHg 81%
    13:00 +5°C° 0 mm 1 mps 732 mmHg 81%
    14:00 +4°C° 0 mm 1 mps 732 mmHg 85%
    15:00 +2°C° 0 mm 1 mps 732 mmHg 88%
    16:00 +1°C° 0 mm 1 mps 732 mmHg 91%
    17:00 0°C° 0 mm 1 mps 732 mmHg 91%
    18:00 -1°C° 0 mm 1 mps 732 mmHg 92%
    19:00 -2°C° 0 mm 1 mps 732 mmHg 92%
    20:00 -3°C° 0 mm 1 mps 732 mmHg 91%
    21:00 -3°C° 0 mm 1 mps 732 mmHg 91%
    22:00 -3°C° 0 mm 1 mps 732 mmHg 90%
    23:00 -3°C° 0 mm 1 mps 732 mmHg 90%
    Show more